Weather History for Sacramento, CA

Change the Weather History Date:

Monday, November 18, 2013

  Actual Average Record
Temperature  
Mean Temperature 50 °F -  
Max Temperature 60 °F 63 °F 75 °F (2008)
Min Temperature 40 °F 42 °F 30 °F (2000)
Degree Days  
Heating Degree Days 15    
Cooling Degree Days 0    
Moisture  
Dew Point 44 °F    
Average Humidity 78    
Maximum Humidity 100    
Minimum Humidity 55    
Precipitation  
Precipitation 0.00 in 0.07 in 1.76 in (1982)
Month to date precipitation 0.00 1.10  
Year to date precipitation 4.50 14.29  
Since 1 July precipitation 0.59 2.39  
Sea Level Pressure  
Sea Level Pressure 30.10 in    
Wind  
Wind Speed 2 mph (SSW)    
Max Wind Speed 13 mph    
Max Gust Speed 15 mph    
Visibility 8 miles    
Events      
T = Trace of Precipitation, MM = Missing Value Source: NWS Daily Summary

Daily Weather History Graph

Daily Weather History Graph

Search for Another Location

Airport:

Trip Planner

Search our weather history database for the weather conditions in past years. The results will help you decide how hot, cold, wet, or windy it might be!

Date:

Astronomy

Nov. 18, 2013 Rise Set
Actual Time 6:51 AM PST 4:50 PM PST
Civil Twilight 6:22 AM PST 5:19 PM PST
Nautical Twilight 5:50 AM PST 5:51 PM PST
Astronomical Twilight 5:19 AM PST 6:22 PM PST
Moon 5:57 PM PST (11/18) 7:44 AM PST (11/18)
Length of Visible Light 10h 56m
Length of Day
9h 59m
Full, 99% of the Moon is Illuminated
Nov 18
Full
Nov 25
Last Quarter
Dec 2
New
Dec 9
First Quarter
Dec 17
Full

Hourly Weather History & Observations

Time (PST) Temp. Dew Point Humidity Pressure Visibility Wind Dir Wind Speed Gust Speed Precip Events Conditions
12:53 AM 43.0 °F 41.0 °F 93% 30.08 in 4.0 mi Calm Calm - N/A   Clear
1:53 AM 42.1 °F 41.0 °F 96% 30.09 in 5.0 mi Calm Calm - N/A   Clear
2:53 AM 42.1 °F 41.0 °F 96% 30.09 in 4.0 mi Calm Calm - N/A   Clear
3:53 AM 42.1 °F 41.0 °F 96% 30.10 in 7.0 mi Calm Calm - N/A   Clear
4:53 AM 41.0 °F 39.9 °F 96% 30.12 in 4.0 mi Calm Calm - N/A   Clear
5:53 AM 41.0 °F 39.9 °F 96% 30.11 in 7.0 mi Calm Calm - N/A   Clear
6:53 AM 39.9 °F 39.0 °F 97% 30.12 in 2.5 mi Calm Calm - N/A   Clear
7:03 AM 39.2 °F 39.2 °F 100% 30.13 in 10.0 mi Calm Calm - N/A   Clear
7:53 AM 46.9 °F 44.1 °F 90% 30.13 in 10.0 mi Calm Calm - N/A   Clear
8:53 AM 48.9 °F 45.0 °F 86% 30.15 in 10.0 mi NNW 3.5 mph - N/A   Clear
9:53 AM 53.1 °F 46.0 °F 77% 30.13 in 10.0 mi ESE 6.9 mph - N/A   Clear
10:53 AM 57.0 °F 46.0 °F 67% 30.14 in 10.0 mi WSW 4.6 mph - N/A   Clear
11:53 AM 57.0 °F 45.0 °F 64% 30.13 in 10.0 mi West 6.9 mph - N/A   Clear
12:53 PM 59.0 °F 45.0 °F 60% 30.09 in 10.0 mi Calm Calm - N/A   Clear
1:53 PM 60.1 °F 46.0 °F 60% 30.07 in 10.0 mi West 5.8 mph - N/A   Clear
2:53 PM 60.1 °F 45.0 °F 57% 30.08 in 10.0 mi SW 9.2 mph - N/A   Clear
3:53 PM 60.1 °F 43.0 °F 53% 30.08 in 10.0 mi SW 9.2 mph - N/A   Clear
4:53 PM 57.0 °F 44.1 °F 62% 30.08 in 10.0 mi SSW 6.9 mph - N/A   Clear
5:53 PM 55.0 °F 45.0 °F 69% 30.09 in 10.0 mi SSW 6.9 mph - N/A   Clear
6:53 PM 53.1 °F 46.0 °F 77% 30.09 in 10.0 mi SSW 5.8 mph - N/A   Clear
7:53 PM 53.1 °F 46.0 °F 77% 30.10 in 10.0 mi SSW 4.6 mph - N/A   Clear
8:53 PM 52.0 °F 46.0 °F 80% 30.10 in 10.0 mi South 4.6 mph - N/A   Clear
9:53 PM 51.1 °F 46.0 °F 83% 30.11 in 10.0 mi SSE 4.6 mph - N/A   Clear
10:53 PM 51.1 °F 45.0 °F 80% 30.09 in 10.0 mi SSE 5.8 mph - N/A   Clear
11:53 PM 51.1 °F 46.0 °F 83% 30.10 in 10.0 mi SSE 4.6 mph - N/A   Scattered Clouds